Hourly Weather Roundup
Issued by NWS Central Illinois

Home | Current Version | Previous Version | Text Only | Print | Product List | Glossary On
Versions: 1 2 3 4 5 6 7 8 9 10 11 12 13 14 15 16 17 18 19 20 21 22 23 24 25 26 27 28 29 30 31 32 33 34 35 36 37 38 39 40 41 42 43 44 45 46 47 48 49 50
000
NZUS43 KILX 250510
HWRILX

AREA WEATHER ROUNDUP
NATIONAL WEATHER SERVICE, LINCOLN IL
1200 AM CDT MON MAY 25 2015


CITY           SKY/WX    TMP DP  RH WIND       PRES   REMARKS
BLOOMINGTON    CLOUDY    76  66  71 S23G35    29.92F
CHAMPAIGN      MOCLDY    76  63  64 S16G25    29.95F
DANVILLE       PTCLDY    74  62  65 S17       29.95F
DECATUR        HVY RAIN  70  64  81 SW29G46   29.97R
EFFINGHAM      LGT RAIN  68  63  83 S7        30.00F
FLORA          CLOUDY    68  63  84 S7        29.99F
GALESBURG      LGT RAIN  66  65  95 SE6       29.85F
JACKSONVILLE   CLOUDY    72  68  88 SE13      29.87F
LACON          CLOUDY    70  65  84 W6        29.87S
LAWRENCEVILLE  CLOUDY    76  64  66 S15G23    30.00F
LITCHFIELD     CLOUDY    65  62  88 S13       29.92F
$$


CITY           SKY/WX    TMP DP  RH WIND       PRES   REMARKS
LINCOLN        RAIN      73  67  80 S10G20    29.88S
MACOMB         CLOUDY    67  66  97 SE6       29.86F
MATTOON        LGT RAIN  69  66  90 S13       29.98R FOG
MT CARMEL AP   CLOUDY    79  61  53 S17       30.00F HX  80
OLNEY-NOBLE AP CLOUDY    73  64  73 S10G16    30.00S
PARIS          CLOUDY    75  63  66 S17G23    29.99F
PEORIA         LGT RAIN  70  66  87 SW5       29.88F FOG
PONTIAC        CLOUDY    77  65  65 S20G25    29.92F
RANTOUL        MOCLDY    76  64  65 S14       29.95F
ROBINSON       CLOUDY    76  63  64 S16G22    30.01S
SPRINGFIELD    LGT RAIN  72  68  87 S18       29.90S
TAYLORVILLE    RAIN      64  63  94 S12       29.93S
$$

...REGIONAL REPORTS...


CITY           SKY/WX    TMP DP  RH WIND       PRES   REMARKS
CHICAGO O`HARE MOCLDY    68  62  81 S9        29.91S
KANKAKEE       MOCLDY    74  63  66 S20G25    29.94F
MOLINE         CLOUDY    68  65  90 SE8       29.83F
MOUNT VERNON   CLOUDY    68  63  83 S18G29    30.00S
PITTSFIELD     CLOUDY    69  66  89 SE15G21   29.84F
QUINCY         CLOUDY    68  65  90 SE13      29.80F
ROCKFORD       LGT RAIN  68  64  87 S8        29.89F
$$


CITY           SKY/WX    TMP DP  RH WIND       PRES   REMARKS
BURLINGTON     LGT RAIN  67  66  97 S7        29.82F
CEDAR RAPIDS   LGT RAIN  67  67 100 S10       29.79S
DES MOINES     CLOUDY    65  62  90 S6        29.78S
KIRKSVILLE     LGT RAIN  64  64 100 CALM      29.82F FOG
OTTUMWA        CLOUDY    64  64 100 S8        29.80F
ST LOUIS       CLOUDY    70  64  81 S15       29.89S
$$


CITY           SKY/WX    TMP DP  RH WIND       PRES   REMARKS
TERRE HAUTE    MOCLDY    74  61  63 S10       30.01F
EVANSVILLE     CLOUDY    76  65  68 S8        30.03F
INDIANAPOLIS   MOCLDY    72  58  61 SE12      30.03F
LAFAYETTE      PTCLDY    73  60  63 S10G20    29.99F
MADISON        CLOUDY    60  58  92 SE5       29.86F FOG
MILWAUKEE      CLOUDY    58  56  93 CALM      29.91F FOG
$$




USA.gov is the U.S. government's official web portal to all federal, state and local government web resources and services.